User: anonymous
Location: State Camp
(41.2367°N, 77.7828°W)
Time: 01:56:35
(UTC-04:00)
Language:

Cosmos 1674 Rocket - Orbit

View from above orbital plane
View from above orbital plane
View from above satellite
View from above satellite

Ground track
Ground track

The orbit data is extracted from the following two-line orbital elements,

1 15945U 85069B   14262.79645913  .00000330  00000-0  37249-4 0  7602
2 15945 082.5308 350.6061 0019195 350.2345 131.3014 14.83407740572544
Epoch (UTC): 19 September 2014 19:06:54
Eccentricity: 0.0019195
inclination: 82.5308°
perigee height: 605 km
apogee height: 632 km
right ascension of ascending node: 350.6061°
argument of perigee: 350.2345°
revolutions per day: 14.83407740
mean anomaly at epoch: 131.3014°
orbit number at epoch: 57254

The dashed part of the orbit path shows where the satellite is in the earth's shadow,  

DLR